Home > Weather > Newport > Past weeks

Flag for United Kingdom Weather for the Past 2 Weeks in Newport, Wales, United Kingdom

Now
64 °F

Mild.


Feels Like: 64 °F
Forecast: 50 / 70 °F
Wind: 13 mph from East

Location: Bristol / Lulsgate

Current Time: May 6, 2016 at 12:40:12 PM

Latest Report: May 6, 2016 at 12:20 PM


Visibility: N/A

Pressure: 29.83 "Hg

Humidity: 49%

Dew Point: 45 °F

Location of NewportLocation

Historic Weather in Newport — Graph

°F

Newport Temperature Yesterday

Maximum temperature yesterday: 66 °F (at 3:20 PM)
Minimum temperature yesterday: 41 °F (at 5:20 AM)
Average temperature yesterday: 55 °F

High & Low Weather Summary for the Past Weeks

 TemperatureHumidityPressure
High66 °F (May 5, 3:20 PM)100% (Apr 22, 6:50 PM)30.36 "Hg (Apr 22, 6:50 PM)
Low32 °F (Apr 28, 3:50 AM)30% (May 5, 5:50 PM)29.77 "Hg (Apr 25, 4:50 PM)
Average46 °F71%30.08 "Hg
* Reported Apr 21 11:20 AM — May 6 11:20 AM, Newport, Weather by CustomWeather, © 2016

Note: Actual official high and low records may vary slightly from our data, if they occured in-between our weather recording intervals... More about our weather records

Advertising

Newport Weather History for the Previous 24 Hours

Scroll right to see more
 ConditionsComfort  
Time TempWeatherWind HumidityBarometerVisibility
11:20 AM
Fri, May 6
61 °FRefreshingly cool.10 mph52%29.83 "HgN/A
10:50 AM59 °FRefreshingly cool.9 mph55%29.83 "HgN/A
10:20 AM57 °FRefreshingly cool.9 mph59%29.86 "HgN/A
9:50 AM55 °FCool.9 mph63%29.86 "HgN/A
9:20 AM52 °FCool.9 mph67%29.86 "HgN/A
8:50 AM50 °FCool.9 mph67%29.86 "HgN/A
8:20 AM48 °FCool.10 mph71%29.86 "HgN/A
7:50 AM48 °FCool.8 mph71%29.86 "HgN/A
7:20 AM46 °FCool.8 mph71%29.86 "HgN/A
6:50 AM46 °FCool.8 mph71%29.86 "HgN/A
6:20 AM45 °FQuite cool.10 mph76%29.89 "HgN/A
5:50 AM46 °FCool.12 mph71%29.89 "HgN/A
5:20 AM46 °FCool.12 mph71%29.89 "HgN/A
4:50 AM46 °FCool.12 mph71%29.89 "HgN/A
4:20 AM46 °FCool.12 mph66%29.89 "HgN/A
3:50 AM45 °FQuite cool.10 mph71%29.92 "HgN/A
3:20 AM45 °FQuite cool.10 mph71%29.92 "HgN/A
2:50 AM43 °FQuite cool.9 mph76%29.92 "HgN/A
2:20 AM43 °FQuite cool.8 mph76%29.95 "HgN/A
1:50 AM45 °FQuite cool.9 mph71%29.95 "HgN/A
1:20 AM45 °FQuite cool.8 mph71%29.95 "HgN/A
12:50 AM45 °FQuite cool.9 mph66%29.98 "HgN/A
12:20 AM45 °FQuite cool.8 mph66%29.98 "HgN/A
11:50 PM
Thu, May 5
50 °FCool.7 mph54%29.98 "HgN/A
11:20 PM52 °FCool.3 mph47%29.98 "HgN/A
10:50 PM52 °FCool.3 mph50%29.98 "HgN/A
10:20 PM54 °FCool.3 mph44%30.01 "HgN/A
9:50 PM55 °FRefreshingly cool.2 mph41%30.01 "HgN/A
9:20 PM55 °FRefreshingly cool.5 mph41%30.01 "HgN/A
8:50 PM55 °FRefreshingly cool.8 mph41%30.01 "HgN/A
8:20 PM59 °FRefreshingly cool.6 mph39%29.98 "HgN/A
7:50 PM59 °FRefreshingly cool.5 mph39%29.98 "HgN/A
7:20 PM61 °FRefreshingly cool.6 mph36%30.01 "HgN/A
6:50 PM61 °FRefreshingly cool.8 mph34%30.01 "HgN/A
6:20 PM63 °FMild.9 mph32%30.01 "HgN/A
5:50 PM64 °FMild.10 mph30%30.01 "HgN/A
5:20 PM64 °FMild.10 mph32%30.01 "HgN/A
4:50 PM64 °FMild.10 mph37%30.01 "HgN/A
4:20 PM64 °FMild.10 mph43%30.01 "HgN/A
3:50 PM66 °FMild.10 mph35%30.04 "HgN/A
3:20 PM66 °FMild.10 mph40%30.04 "HgN/A
2:50 PM64 °FMild.9 mph40%30.04 "HgN/A
2:20 PM64 °FMild.10 mph40%30.07 "HgN/A
1:50 PM64 °FMild.9 mph43%30.07 "HgN/A
1:20 PM64 °FMild.9 mph43%30.07 "HgN/A
12:50 PM64 °FMild.12 mph43%30.09 "HgN/A
12:20 PM63 °FMild.13 mph45%30.09 "HgN/A
Weather by CustomWeather, © 2016

See weather overviewHow to use our weather pages